Oakland, NJ (07436)

8:39 AM EDT on June 22, 2017 (GMT -0400)
NW Bergen County Skywarn | | Change Station

Elev 466 ft 41.02 °N, 74.24 °W | Updated 9 minutes ago

Clear
Clear
67.0 °F
Feels Like 67.0 °F
N
0.0
Wind Variable Wind from NW
Gusts 0.0 mph

Today
High -- | Low -- °F
--% Chance of Precip.
Yesterday
High -- | Low -- °F
Precip. -- in
Pressure 30.06 in
Visibility 10.0 miles
Clouds Clear
Dew Point 59 °F
Humidity 75%
Rainfall 0.00 in
Snow Depth Not available.
5:25 AM 8:32 PM
Waning Crescent, 4% visible
METAR KCDW 221153Z AUTO 00000KT 10SM CLR 22/15 A3004 RMK AO2 SLP178 T02170150 10217 20161 51015 TSNO
Pressure 30.06 in
Visibility 10.0 miles
Clouds Clear
Dew Point 59 °F
Humidity 75%
Rainfall 0.00 in
Snow Depth Not available.
5:25 AM 8:32 PM
Waning Crescent, 4% visible
METAR KCDW 221153Z AUTO 00000KT 10SM CLR 22/15 A3004 RMK AO2 SLP178 T02170150 10217 20161 51015 TSNO

Get Severe Weather Alerts

Thanks for signing up!

Be on the lookout for a verification email in your inbox.

You'll start receiving the daily forecast at 6 AM.

×

10-Day Weather Forecast

Almanac

Astronomy

Jun. 22, 2017 Rise Set
Actual Time
Civil Twilight
Nautical Twilight
Astronomical Twilight
Moon
Length of Visible Light
Length of Day
Tomorrow will be .
, % of the Moon is Illuminated

Today's Extremes

State Highs State Lows

Community

WunderPhotos

Category 6

Welcome to Category 6. This is the collective home for Weather Underground's featured writeups by Dr. Jeff Masters (right), Bob Henson (left), Chris Burt, and other regular contributors.

Nearby

Air Quality

  Air Quality AQ Index Pollutant
Not available.

Snow Depth

Station Depth Elevation

Earthquake Activity

City Distance Mag. Time & Date
Minimum magnitude displayed is 2.5.

Coastal Water Temperatures

Place Temperature

Stations

Nearby Weather Stations

Station Location Temp. Windchill Dew Point Humidity Wind Precip. Elev Updated Type
                   

Watches & Warnings

There are currently no watches in effect.